星链-4656 (STARLINK-4656 )

导读

STARLINK-4656是美国太空探索技术公司星链星座中的一员,于2022年9月5日发射入轨。星链计划旨在搭建全球卫星互联网星座,为全球提供高速互联网接入服务。该卫星承担着地面网络覆盖盲区的通信支持任务,依托低轨部署优势,降低传输延迟,助力星链系统完成全球通信网络布局,拓展卫星互联网的服务覆盖范围。

基本信息
目录编号:
53745
目录名称:
STARLINK-4656
国际标识:
2022-107AX
轨道中心:
EARTH
卫星名称:
星链-4656
卫星全名:
星链-4656 (STARLINK-4656 )
卫星状态:
在轨 (已飞行1381 天)
发射日期:
2022-09-05 UTC
国别 :
美国 (US)
星等 :
--
轨道信息
数据来源 国际轨道数据 AOE轨道数据
星历时间 2026-06-17T01:34:14+0800
15小时前
查看轨道信息
2026-06-16T00:00:00+0800
1天前
查看轨道信息
半长轴 6917.914km 6917.906km
偏心率 0.0001214 0.0001164
轨道倾角 53.160° 53.159°
近地点辐角 79.376° 79.462°
升交点赤经 179.537° 184.327°
平近点角 280.737° 250.210°
近地点 538.937km 538.963km
远地点 540.617km 540.575km
周期 95.438分钟 95.438分钟
每日圈数 15.088292 15.088318
详细信息
固有亮度:
5
最大亮度:
2.5
卫星平台:
Starlink v1.5
覆盖范围:
全球
运营商:
太空探索技术公司
运营商所在国:
美国
制造商(研发单位):
太空探索技术公司
制造商所在国:
美国
使用方式:
暂无
卫星简介
星链(Starlink)计划是由太空探索技术公司(SpaceX)提出的一个巨型低轨卫星互联网星座项目,计划在2019年至2024年间在太空搭建由约1.2万颗卫星组成的“星链”网络,其中1584颗将部署在地球上空550千米处的近地轨道,并从2020年开始工作。该卫星仍在工作。
2D轨道图
3D轨道图
轨道高度分析图
轨道倾角分析图
轨道综合分析图
查看轨道综合分析图